Regional Weather Roundup
Issued by NWS

Home | Current Version | Previous Version | Graphics & Text | Print | Product List | Glossary On
Versions: 1 2 3 4 5 6 7 8 9 10 11 12 13 14 15 16 17 18 19 20 21 22 23 24 25 26 27 28 29 30 31 32 33 34 35 36 37 38 39 40 41 42 43 44 45 46 47 48 49 50
000
ASUS43 KFSD 221210
RWRSD

WEATHER ROUNDUP FOR SOUTH DAKOTA
NATIONAL WEATHER SERVICE SIOUX FALLS SD
700 AM CDT MON SEP 22 2014

NOTE: "FAIR" INDICATES FEW OR NO CLOUDS BELOW 12,000 FEET WITH NO
SIGNIFICANT WEATHER AND/OR OBSTRUCTIONS TO VISIBILITY.


SDZ001>005-009-010-012>017-221300-
NORTHWEST AND NORTH CENTRAL SOUTH DAKOTA

CITY           SKY/WX    TMP DP  RH WIND       PRES   REMARKS
BUFFALO          N/A     49  36  61 E7        30.03F
FAITH            N/A     49  39  68 SE16      30.12F
MOBRIDGE       CLEAR     48  46  93 SE8       30.16F
$$

SDZ012>016-024>037-041>051-057-063-072>074-221300-
SOUTHWEST AND SOUTH CENTRAL SOUTH DAKOTA

CITY           SKY/WX    TMP DP  RH WIND       PRES   REMARKS
RAPID CTY ARPT MOCLDY    48  39  71 SE6       30.13F
PIERRE         CLEAR     47  41  80 SE8       30.18F
CUSTER         CLOUDY    52  37  56 SW3       30.21F
ELLSWORTH AFB  MOCLDY    54  39  57 SE7       30.11F
PHILIP         MOCLDY    46  39  76 E6        30.15F
PINE RIDGE     PTCLDY    61  40  45 S20G29    30.15F
WINNER         FAIR      53  43  68 S14       30.22F
$$

SDZ004>011-016>023-039-040-221300-
NORTHEAST SOUTH DAKOTA

CITY           SKY/WX    TMP DP  RH WIND       PRES   REMARKS
ABERDEEN       CLEAR     40  38  93 S7        30.23S
WATERTOWN      CLEAR     41  40  96 S5        30.25S
SISSETON         N/A     53  48  83 W10       30.21S
$$

SDZ017-020-022-023-036>040-048>070-221300-
SOUTHEAST SOUTH DAKOTA

CITY           SKY/WX    TMP DP  RH WIND       PRES   REMARKS
SIOUX FALLS    CLEAR     44  42  93 CALM      30.28R
HURON          CLEAR     44  41  89 SE5       30.24S
CHAMBERLAIN    CLEAR     44  41  89 SE3       30.22F
MITCHELL       CLEAR     42  40  92 SE5       30.26S
YANKTON          N/A     43  41  93 CALM      30.28S VSB<1/4
$$

ABBREVIATIONS USED IN REMARKS
   TC - TEMPERATURE IN CELSIUS
  WCI - WIND CHILL INDEX
   HX - HEAT INDEX
  VSB - VISIBILITY




USA.gov is the U.S. government's official web portal to all federal, state and local government web resources and services.